EN

Hourly Weather Alsdorf

Today, 18 January, Monday

Time Temperature Precipitation Wind Pressure Humidity
00:00 0°C° 0.1 mm 4 mps 753 mmHg 95%
01:00 0°C° 0.1 mm 4 mps 753 mmHg 95%
02:00 0°C° 0.1 mm 4 mps 753 mmHg 95%
03:00 0°C° 0.1 mm 4 mps 753 mmHg 94%
04:00 0°C° 0 mm 4 mps 753 mmHg 95%
05:00 -1°C° 0 mm 4 mps 753 mmHg 95%
06:00 -1°C° 0 mm 4 mps 753 mmHg 96%
07:00 -1°C° 0 mm 4 mps 753 mmHg 95%
08:00 -1°C° 0 mm 5 mps 753 mmHg 94%
09:00 0°C° 0 mm 5 mps 753 mmHg 93%
10:00 0°C° 0 mm 5 mps 753 mmHg 92%
11:00 +1°C° 0 mm 6 mps 753 mmHg 92%
12:00 +1°C° 0 mm 6 mps 753 mmHg 91%
13:00 +1°C° 0 mm 6 mps 752 mmHg 91%
14:00 +1°C° 0 mm 6 mps 752 mmHg 91%
15:00 +1°C° 0 mm 6 mps 751 mmHg 90%
16:00 +1°C° 0 mm 6 mps 751 mmHg 90%
17:00 +1°C° 0 mm 5 mps 751 mmHg 91%
18:00 +1°C° 0 mm 5 mps 751 mmHg 91%
19:00 +1°C° 0 mm 6 mps 751 mmHg 90%
20:00 +1°C° 0 mm 6 mps 750 mmHg 90%
21:00 0°C° 0 mm 7 mps 750 mmHg 90%
22:00 +1°C° 0 mm 6 mps 750 mmHg 88%
23:00 +1°C° 0 mm 6 mps 749 mmHg 87%

Tomorrow, 19 January, Tuesday

Time Temperature Precipitation Wind Pressure Humidity
00:00 +1°C° 0 mm 6 mps 749 mmHg 86%
01:00 0°C° 0.2 mm 7 mps 748 mmHg 87%
02:00 0°C° 0.2 mm 7 mps 747 mmHg 88%
03:00 0°C° 0.2 mm 8 mps 746 mmHg 89%
04:00 +1°C° 1.2 mm 8 mps 745 mmHg 89%
05:00 +1°C° 1.2 mm 8 mps 744 mmHg 89%
06:00 +2°C° 1.2 mm 9 mps 743 mmHg 89%
07:00 +2°C° 1.3 mm 10 mps 743 mmHg 88%
08:00 +3°C° 1.3 mm 10 mps 742 mmHg 87%
09:00 +3°C° 1.3 mm 11 mps 741 mmHg 87%
10:00 +3°C° 0.4 mm 11 mps 742 mmHg 87%
11:00 +3°C° 0.4 mm 11 mps 742 mmHg 87%
12:00 +5°C° 0.4 mm 10 mps 742 mmHg 87%
13:00 +5°C° 0.2 mm 10 mps 741 mmHg 87%
14:00 +5°C° 0.2 mm 9 mps 741 mmHg 88%
15:00 +5°C° 0.2 mm 9 mps 741 mmHg 89%
16:00 +5°C° 0.1 mm 9 mps 741 mmHg 87%
17:00 +5°C° 0.1 mm 8 mps 742 mmHg 86%
18:00 +5°C° 0.1 mm 8 mps 742 mmHg 85%
19:00 +5°C° 0 mm 8 mps 741 mmHg 84%
20:00 +5°C° 0 mm 8 mps 741 mmHg 84%
21:00 +5°C° 0 mm 8 mps 741 mmHg 83%
22:00 +4°C° 0 mm 8 mps 741 mmHg 82%
23:00 +4°C° 0 mm 8 mps 740 mmHg 81%

Day after tomorrow, 20 January, Wednesday

Time Temperature Precipitation Wind Pressure Humidity
00:00 +2°C° 0 mm 8 mps 740 mmHg 79%
01:00 +2°C° 0 mm 8 mps 739 mmHg 80%
02:00 +2°C° 0 mm 8 mps 739 mmHg 82%
03:00 +2°C° 0 mm 8 mps 738 mmHg 83%
04:00 +2°C° 0 mm 8 mps 738 mmHg 81%
05:00 +4°C° 0 mm 8 mps 738 mmHg 78%
06:00 +3°C° 0 mm 9 mps 738 mmHg 76%
07:00 +5°C° 0 mm 8 mps 738 mmHg 72%
08:00 +5°C° 0 mm 8 mps 737 mmHg 68%
09:00 +5°C° 0 mm 8 mps 737 mmHg 63%
10:00 +5°C° 0 mm 8 mps 737 mmHg 62%
11:00 +6°C° 0 mm 8 mps 737 mmHg 61%
12:00 +6°C° 0 mm 8 mps 736 mmHg 60%
13:00 +6°C° 0 mm 7 mps 736 mmHg 62%
14:00 +6°C° 0 mm 7 mps 735 mmHg 63%
15:00 +7°C° 0 mm 6 mps 734 mmHg 65%
16:00 +7°C° 0 mm 6 mps 734 mmHg 67%
17:00 +6°C° 0 mm 7 mps 734 mmHg 70%
18:00 +5°C° 0 mm 7 mps 734 mmHg 73%
19:00 +5°C° 0 mm 7 mps 733 mmHg 75%
20:00 +7°C° 0 mm 6 mps 733 mmHg 77%
21:00 +7°C° 0 mm 6 mps 732 mmHg 78%
22:00 +7°C° 0 mm 6 mps 732 mmHg 77%
23:00 +6°C° 0 mm 7 mps 732 mmHg 76%

21 January, Thursday

Time Temperature Precipitation Wind Pressure Humidity
00:00 +6°C° 0 mm 7 mps 731 mmHg 75%
01:00 +6°C° 0 mm 7 mps 731 mmHg 75%
02:00 +6°C° 0 mm 8 mps 730 mmHg 75%
03:00 +6°C° 0 mm 8 mps 729 mmHg 74%
04:00 +7°C° 0 mm 9 mps 729 mmHg 74%
05:00 +7°C° 0 mm 9 mps 729 mmHg 73%
06:00 +7°C° 0 mm 10 mps 729 mmHg 73%
07:00 +6°C° 1.1 mm 9 mps 729 mmHg 76%
08:00 +4°C° 1.1 mm 8 mps 729 mmHg 78%
09:00 +3°C° 1.1 mm 7 mps 730 mmHg 81%
10:00 +4°C° 0.1 mm 7 mps 730 mmHg 77%
11:00 +5°C° 0.1 mm 8 mps 731 mmHg 72%
12:00 +5°C° 0.1 mm 8 mps 731 mmHg 68%
13:00 +5°C° 0 mm 7 mps 731 mmHg 68%
14:00 +5°C° 0 mm 7 mps 731 mmHg 69%
15:00 +5°C° 0 mm 6 mps 731 mmHg 69%
16:00 +4°C° 0 mm 6 mps 731 mmHg 72%
17:00 +4°C° 0 mm 6 mps 731 mmHg 75%
18:00 +3°C° 0 mm 6 mps 731 mmHg 77%
19:00 +3°C° 0.1 mm 5 mps 730 mmHg 80%
20:00 +3°C° 0.1 mm 5 mps 729 mmHg 83%
21:00 +3°C° 0.1 mm 5 mps 728 mmHg 85%
22:00 +5°C° 0.7 mm 5 mps 727 mmHg 86%
23:00 +5°C° 0.7 mm 5 mps 727 mmHg 87%

22 January, Friday

Time Temperature Precipitation Wind Pressure Humidity
00:00 +6°C° 0.7 mm 5 mps 726 mmHg 88%
01:00 +5°C° 0.9 mm 5 mps 726 mmHg 88%
02:00 +5°C° 0.9 mm 5 mps 726 mmHg 88%
03:00 +3°C° 0.9 mm 6 mps 727 mmHg 88%
04:00 +3°C° 0 mm 6 mps 727 mmHg 87%
05:00 +2°C° 0 mm 6 mps 728 mmHg 86%
06:00 +2°C° 0 mm 6 mps 728 mmHg 86%
07:00 +2°C° 0 mm 6 mps 729 mmHg 84%
08:00 +2°C° 0 mm 6 mps 729 mmHg 83%
09:00 +2°C° 0 mm 6 mps 729 mmHg 81%
10:00 +3°C° 0 mm 7 mps 729 mmHg 78%
11:00 +4°C° 0 mm 7 mps 730 mmHg 76%
12:00 +4°C° 0 mm 7 mps 730 mmHg 73%
13:00 +4°C° 0 mm 7 mps 730 mmHg 73%
14:00 +4°C° 0 mm 7 mps 730 mmHg 74%
15:00 +3°C° 0 mm 6 mps 731 mmHg 75%
16:00 +3°C° 0 mm 6 mps 731 mmHg 76%
17:00 +3°C° 0 mm 6 mps 731 mmHg 78%
18:00 +2°C° 0 mm 6 mps 731 mmHg 79%
19:00 +2°C° 0 mm 5 mps 732 mmHg 81%
20:00 +2°C° 0 mm 5 mps 732 mmHg 82%
21:00 +1°C° 0 mm 5 mps 732 mmHg 83%
22:00 +1°C° 0 mm 4 mps 732 mmHg 84%
23:00 +1°C° 0 mm 4 mps 732 mmHg 85%

23 January, Saturday

Time Temperature Precipitation Wind Pressure Humidity
00:00 0°C° 0 mm 4 mps 732 mmHg 86%
01:00 +1°C° 0 mm 3 mps 732 mmHg 87%
02:00 +1°C° 0 mm 3 mps 732 mmHg 88%
03:00 +1°C° 0 mm 3 mps 732 mmHg 90%
04:00 +1°C° 0 mm 3 mps 733 mmHg 90%
05:00 +1°C° 0 mm 3 mps 733 mmHg 91%
06:00 0°C° 0 mm 3 mps 733 mmHg 92%
07:00 +1°C° 0 mm 3 mps 733 mmHg 91%
08:00 +1°C° 0 mm 3 mps 734 mmHg 90%
09:00 0°C° 0 mm 4 mps 735 mmHg 89%
10:00 +1°C° 0 mm 4 mps 735 mmHg 84%
11:00 +1°C° 0 mm 4 mps 736 mmHg 79%
12:00 +2°C° 0 mm 5 mps 736 mmHg 75%
13:00 +3°C° 0 mm 4 mps 737 mmHg 75%
14:00 +3°C° 0 mm 4 mps 737 mmHg 75%
15:00 +3°C° 0 mm 3 mps 738 mmHg 75%
16:00 +2°C° 0 mm 3 mps 738 mmHg 77%
17:00 +2°C° 0 mm 3 mps 738 mmHg 79%
18:00 +2°C° 0 mm 2 mps 739 mmHg 82%
19:00 +2°C° 0 mm 2 mps 739 mmHg 83%
20:00 +1°C° 0 mm 2 mps 739 mmHg 85%
21:00 +1°C° 0 mm 2 mps 739 mmHg 87%
22:00 +1°C° 0 mm 2 mps 739 mmHg 87%
23:00 +1°C° 0 mm 2 mps 739 mmHg 87%
Show more